St. Johnsbury, VT

10:32 PM EDT on June 24, 2017 (GMT -0400)
St. Johnsbury

Weather History for K1V4 - January, 2015

Change the Weather History Date:

Friday, January 9, 2015

  Actual Average Record
Temperature  
Mean Temperature 16 °F 17 °F  
Max Temperature 25 °F 27 °F 53 °F (2008)
Min Temperature 7 °F 7 °F -34 °F (1968)
Degree Days  
Heating Degree Days 49 48  
Month to date heating degree days 459 428  
Since 1 July heating degree days 3259 3381  
Cooling Degree Days 0 0  
Month to date cooling degree days 0 0  
Year to date cooling degree days 0 0  
Moisture  
Dew Point 6 °F    
Average Humidity 67    
Maximum Humidity 91    
Minimum Humidity 42    
Precipitation  
Precipitation 0.08 in 0.08 in 1.28 in (1935)
Month to date precipitation 0.80 0.73  
Year to date precipitation 0.80 0.73  
Sea Level Pressure  
Sea Level Pressure 29.89 in    
Wind  
Wind Speed - (North)    
Max Wind Speed -    
Max Gust Speed -    
T = Trace of Precipitation, MM = Missing Value Source: NWS Daily Summary

Daily Weather History Graph

Daily Weather History Graph

Search for Another Location

Airport or City:

Trip Planner

Search our weather history database for the weather conditions in past years. The results will help you decide how hot, cold, wet, or windy it might be!

Date:

Astronomy

Jan. 09, 2015 Rise Set
Actual Time 7:23 AM EST 4:27 PM EST
Civil Twilight 6:50 AM EST 4:59 PM EST
Nautical Twilight 6:14 AM EST 5:36 PM EST
Astronomical Twilight 5:39 AM EST 6:11 PM EST
Moon 9:09 PM EST (1/9) 9:28 AM EST (1/9)
Length of Visible Light 10h 09m
Length of Day
9h 03m
Waning Gibbous, 82% of the Moon is Illuminated
Jan 9
Waning Gibbous
Jan 13
Last Quarter
Jan 20
New
Jan 26
First Quarter
Feb 3
Full

Hourly Weather History & Observations

Time (EST) Temp. Dew Point Humidity Pressure Visibility Wind Dir Wind Speed Gust Speed Precip Events Conditions
12:54 AM 12.9 °F -0.0 °F 56% 30.01 in - North - - N/A   Unknown
1:54 AM 14.0 °F -0.0 °F 54% 29.93 in - North - - N/A   Unknown
2:54 AM 14.0 °F -0.0 °F 54% 29.90 in - North - - N/A   Unknown
3:54 AM 14.0 °F -0.9 °F 52% 29.85 in - North - - N/A   Unknown
4:54 AM 14.0 °F 3.0 °F 62% 29.83 in - North - - N/A   Unknown
5:54 AM 12.9 °F 9.0 °F 84% 29.83 in - North - - 0.02 in   Unknown
6:54 AM 14.0 °F 9.0 °F 80% 29.83 in - North - - 0.02 in   Unknown
7:54 AM 14.0 °F 9.0 °F 80% 29.84 in - North - - N/A   Unknown
8:54 AM 15.1 °F 10.0 °F 80% 29.84 in - North - - 0.01 in   Unknown
9:54 AM 16.0 °F 10.0 °F 77% 29.83 in - North - - N/A   Unknown
10:54 AM 18.0 °F 10.9 °F 74% 29.81 in - North - - N/A   Unknown
11:54 AM 19.9 °F 10.9 °F 68% 29.78 in - North - - N/A   Unknown
12:54 PM 24.1 °F 5.0 °F 44% 29.76 in - North - - N/A   Unknown
1:54 PM 24.1 °F 5.0 °F 44% 29.77 in - North - - N/A   Unknown
2:54 PM 24.1 °F 7.0 °F 48% 29.81 in - North - - N/A   Unknown
3:54 PM 19.0 °F 12.9 °F 77% 29.88 in - North - - 0.03 in   Unknown
4:54 PM 19.0 °F 10.0 °F 68% 29.91 in - North - - N/A   Unknown
5:54 PM 17.1 °F 8.1 °F 68% 29.94 in - North - - N/A   Unknown
6:54 PM 12.0 °F 8.1 °F 84% 29.97 in - North - - N/A   Unknown
7:54 PM 9.0 °F 6.1 °F 88% 29.99 in - North - - N/A   Unknown
8:54 PM 8.1 °F 3.9 °F 83% 30.01 in - North - - N/A   Unknown
9:54 PM 7.0 °F 3.9 °F 87% 30.03 in - North - - N/A   Unknown
10:54 PM 8.1 °F 5.0 °F 87% 30.04 in - North - - N/A   Unknown
11:54 PM 10.0 °F 6.1 °F 84% 30.06 in - North - - N/A   Unknown